Location: Bukit Lungun
(2.6833°N, 113.9667°E)
Time: 14:43:27
(UTC+00:00)

Ariane H10 - Pass Details

Date: 02 March 2021
Orbit: 454 x 35428 km, 7.0° (Epoch: 13 April)

Event Time Altitude Azimuth Distance (km) Brightness Sun altitude
Exits shadow 21:45:27 10° 235° (SW) 2,074 4.8 -12.9°
Maximum altitude 21:48:20 21° 183° (S) 1,133 4.0 -12.2°
Drops below altitude 10° 21:50:36 10° 128° (SE) 1,580 5.6 -11.6°
Sets 21:53:03 0° 108° (ESE) 2,712 7.8 -11.0°
